FW4351 Duxbury MA US current weather conditions

sailwx.info

Wind from 143 at 0 knots gusting 2

Air temperature 22.2° C
Dewpoint 21.6° C

Last reported at 2020-Jul-11 01:10 UTC.
Time now 2020-Jul-11 01:43 UTC

Location: N 42°01' W 070°43'.
View on Google Maps.

See reports from other nearby stations

  
Tides and Currents Weather Stations Pressure Air Temp Water Temp Dewpoint Dewpoint Depression Visibility Wind Speed Wind Dir Waves Ship Positions
date/time (UTC)wind fromknots sea level pressurealtimeterstation pressurevisibilityair tempwater tempwave heightnotes
2020-Jul-11 01:10 143 0 gusting 2 22.2
2020-Jul-11 01:00 176 0 gusting 2 22.2
2020-Jul-11 00:50 179 0 gusting 1 22.2
2020-Jul-11 00:40 158 0 gusting 1 22.2
2020-Jul-11 00:30 033 0 gusting 3 22.8
2020-Jul-11 00:20 147 0 gusting 2 22.8
2020-Jul-11 00:10 186 0 gusting 1 22.8
2020-Jul-11 00:00 197 23.3
2020-Jul-10 23:50 154 0 gusting 1 23.3
2020-Jul-10 23:40 194 23.9
2020-Jul-10 23:30 194 0 gusting 1 23.9
2020-Jul-10 23:20 190 0 gusting 1 24.4
2020-Jul-10 23:10 201 0 gusting 2 24.4
2020-Jul-10 23:00 206 0 gusting 2 24.4
2020-Jul-10 22:50 208 0 gusting 2 24.4
2020-Jul-10 22:40 218 0 gusting 2 24.4
2020-Jul-10 22:30 224 0 gusting 2 24.4
2020-Jul-10 22:20 204 0 gusting 1 24.4
2020-Jul-10 22:10 220 0 gusting 2 24.4
2020-Jul-10 22:00 216 0 gusting 2 24.4
2020-Jul-10 21:50 209 0 gusting 2 25.0
2020-Jul-10 21:40 207 0 gusting 2 25.0
2020-Jul-10 21:30 205 0 gusting 2 25.0
2020-Jul-10 21:20 193 0 gusting 2 25.0
2020-Jul-10 21:10 205 0 gusting 4 25.6
2020-Jul-10 21:00 210 1 gusting 3 25.6
2020-Jul-10 20:50 200 0 gusting 2 25.6
2020-Jul-10 20:40 202 0 gusting 3 25.6
2020-Jul-10 20:30 216 1 gusting 3 25.6
2020-Jul-10 20:20 220 1 gusting 4 25.6
2020-Jul-10 20:10 219 0 gusting 3 25.6
2020-Jul-10 20:00 204 0 gusting 2 26.1
2020-Jul-10 19:50 211 1 gusting 3 26.1
2020-Jul-10 19:40 345 0 gusting 2 26.7
2020-Jul-10 19:30 008 0 gusting 2 26.7
2020-Jul-10 19:20 074 0 gusting 2 27.2
2020-Jul-10 19:10 156 0 gusting 2 27.8
2020-Jul-10 19:00 154 0 gusting 2 27.8
2020-Jul-10 18:50 169 0 gusting 5 27.8
2020-Jul-10 18:40 043 0 gusting 2 27.8
2020-Jul-10 18:30 212 0 gusting 2 26.7
2020-Jul-10 18:20 044 0 gusting 3 26.7
2020-Jul-10 18:10 200 0 gusting 3 26.1
2020-Jul-10 18:00 213 0 gusting 3 26.7
2020-Jul-10 17:50 145 0 gusting 2 26.7
2020-Jul-10 17:40 192 0 gusting 2 26.7
2020-Jul-10 17:30 190 1 gusting 3 26.7
2020-Jul-10 17:20 179 0 gusting 4 26.7
2020-Jul-10 17:10 212 1 gusting 3 26.7
2020-Jul-10 17:00 204 1 gusting 4 26.1
2020-Jul-10 16:50 211 1 gusting 5 26.7
2020-Jul-10 16:40 155 0 gusting 4 27.2
2020-Jul-10 16:30 047 0 gusting 2 27.2
2020-Jul-10 16:20 190 1 gusting 2 27.2
2020-Jul-10 16:10 153 0 gusting 2 26.7
2020-Jul-10 16:00 201 0 gusting 2 26.1
2020-Jul-10 15:50 202 1 gusting 4 25.6
2020-Jul-10 15:40 157 0 gusting 2 25.0
2020-Jul-10 15:30 212 0 gusting 3 25.0
2020-Jul-10 15:20 193 1 gusting 4 25.6
2020-Jul-10 15:10 167 0 gusting 2 26.1
2020-Jul-10 15:00 071 0 gusting 2 26.1
2020-Jul-10 14:50 030 0 gusting 2 26.1
2020-Jul-10 14:40 175 0 gusting 1 26.1
2020-Jul-10 14:30 033 0 gusting 1 26.1
2020-Jul-10 14:20 287 0 gusting 5 26.1
2020-Jul-10 14:10 182 0 gusting 1 26.1
2020-Jul-10 14:00 209 0 gusting 3 26.1
2020-Jul-10 13:50 224 1 gusting 4 25.6
2020-Jul-10 13:40 216 1 gusting 5 25.0
2020-Jul-10 13:30 212 0 gusting 3 24.4
2020-Jul-10 13:20 213 0 gusting 3 23.9
2020-Jul-10 13:10 229 0 gusting 2 23.3
2020-Jul-10 13:00 214 0 gusting 2 23.3
2020-Jul-10 12:50 238 22.8
2020-Jul-10 12:40 245 22.2
2020-Jul-10 12:30 244 22.2
2020-Jul-10 12:20 221 0 gusting 2 22.2
2020-Jul-10 12:10 214 0 gusting 3 22.2
2020-Jul-10 12:00 210 0 gusting 3 22.2
2020-Jul-10 11:50 209 0 gusting 1 22.2
2020-Jul-10 11:40 201 0 gusting 2 22.2
2020-Jul-10 11:30 199 22.2
2020-Jul-10 11:20 198 22.2
2020-Jul-10 11:10 198 22.2
2020-Jul-10 11:00 198 22.2
2020-Jul-10 10:50 198 22.2
2020-Jul-10 10:40 199 21.7
2020-Jul-10 10:30 198 21.7
2020-Jul-10 10:20 198 21.7
2020-Jul-10 10:10 198 21.7
2020-Jul-10 10:00 198 0 gusting 1 21.7
2020-Jul-10 09:50 197 0 gusting 1 21.7
2020-Jul-10 09:40 192 0 gusting 1 21.7
2020-Jul-10 09:30 189 21.7
2020-Jul-10 09:20 189 21.7
2020-Jul-10 09:10 188 21.7
2020-Jul-10 09:00 188 21.7
2020-Jul-10 08:50 189 21.7
2020-Jul-10 08:40 189 21.7
2020-Jul-10 08:30 21.7
2020-Jul-10 08:20 194 0 gusting 2 21.7
2020-Jul-10 08:10 213 0 gusting 3 21.7
2020-Jul-10 08:00 211 0 gusting 1 21.7
2020-Jul-10 07:50 203 0 gusting 1 21.7
2020-Jul-10 07:40 201 0 gusting 2 21.1
2020-Jul-10 07:30 207 1 gusting 2 21.1
2020-Jul-10 07:20 197 0 gusting 2 21.1
2020-Jul-10 07:10 200 0 gusting 1 21.1
2020-Jul-10 07:00 202 0 gusting 1 21.1
2020-Jul-10 06:50 205 0 gusting 2 21.1
2020-Jul-10 06:40 211 0 gusting 2 21.1
2020-Jul-10 06:30 213 0 gusting 2 21.1
2020-Jul-10 06:20 237 0 gusting 1 21.1
2020-Jul-10 06:10 234 0 gusting 1 21.7
2020-Jul-10 06:00 210 0 gusting 1 21.7
2020-Jul-10 05:50 209 0 gusting 2 21.7
2020-Jul-10 05:40 211 0 gusting 2 21.7
2020-Jul-10 05:30 210 1 gusting 3 21.7
2020-Jul-10 05:20 208 1 gusting 3 21.7
2020-Jul-10 05:10 222 0 gusting 3 21.1
2020-Jul-10 05:00 224 0 gusting 1 21.1
2020-Jul-10 04:50 225 21.1
2020-Jul-10 04:40 21.7
2020-Jul-10 04:30 225 21.7
2020-Jul-10 04:20 225 22.2
2020-Jul-10 04:10 225 22.2
2020-Jul-10 04:00 225 22.2
2020-Jul-10 03:50 225 22.2
2020-Jul-10 03:40 219 22.2
2020-Jul-10 03:30 218 0 gusting 3 22.8
2020-Jul-10 03:20 195 0 gusting 1 22.8
2020-Jul-10 03:10 195 0 gusting 1 22.8
2020-Jul-10 03:00 193 0 gusting 1 22.8
2020-Jul-10 02:50 197 0 gusting 2 22.8
2020-Jul-10 02:40 197 0 gusting 2 23.3
2020-Jul-10 02:30 214 0 gusting 4 23.3
2020-Jul-10 02:20 229 0 gusting 2 23.3
2020-Jul-10 02:10 216 1 gusting 2 23.3
2020-Jul-10 02:00 203 1 gusting 2 23.3
2020-Jul-10 01:50 214 1 gusting 2 23.9
2020-Jul-10 01:40 218 0 gusting 2 23.9
2020-Jul-10 01:30 214 1 gusting 2 23.9
2020-Jul-10 01:20 215 1 gusting 2 24.4
2020-Jul-10 01:10 208 1 gusting 3 24.4
2020-Jul-10 01:00 210 1 gusting 4 24.4
2020-Jul-10 00:50 210 1 gusting 6 25.0
2020-Jul-10 00:40 215 1 gusting 4 25.0
2020-Jul-10 00:30 212 2 gusting 5 25.6
2020-Jul-10 00:20 222 1 gusting 5 25.6
2020-Jul-10 00:10 219 1 gusting 6 26.1
2020-Jul-10 00:00 224 2 gusting 6 26.1
2020-Jul-09 23:50 212 2 gusting 6 26.7
2020-Jul-09 23:40 213 3 gusting 7 26.7
2020-Jul-09 23:30 211 3 gusting 7 26.7
2020-Jul-09 23:20 222 2 gusting 6 27.2
2020-Jul-09 23:10 206 2 gusting 7 27.2
2020-Jul-09 23:00 212 2 gusting 7 27.8
2020-Jul-09 22:50 219 3 gusting 8 27.8
2020-Jul-09 22:40 210 4 gusting 8 27.8
2020-Jul-09 22:30 212 2 gusting 6 28.3
2020-Jul-09 22:20 211 4 gusting 11 28.3
2020-Jul-09 22:10 207 4 gusting 9 28.3
2020-Jul-09 22:00 200 4 gusting 11 28.9
2020-Jul-09 21:50 211 4 gusting 11 28.9
2020-Jul-09 21:40 221 3 gusting 7 28.9
2020-Jul-09 21:30 206 4 gusting 9 29.4
2020-Jul-09 21:20 220 3 gusting 6 30.0
2020-Jul-09 21:10 214 3 gusting 8 30.0
2020-Jul-09 21:00 216 3 gusting 6 30.6
2020-Jul-09 20:50 216 2 gusting 7 30.6
2020-Jul-09 20:40 218 2 gusting 6 30.6
2020-Jul-09 20:30 222 2 gusting 6 31.1
2020-Jul-09 20:20 216 2 gusting 6 31.7
2020-Jul-09 20:10 218 3 gusting 7 31.7
2020-Jul-09 20:00 203 3 gusting 6 32.2
2020-Jul-09 19:50 213 1 gusting 6 32.2
2020-Jul-09 19:40 221 1 gusting 6 31.7
2020-Jul-09 19:30 214 2 gusting 6 31.7
2020-Jul-09 19:20 206 3 gusting 7 31.7
2020-Jul-09 19:10 224 1 gusting 4 32.8
2020-Jul-09 19:00 213 1 gusting 4 32.8
2020-Jul-09 18:50 212 1 gusting 5 33.3
2020-Jul-09 18:40 228 1 gusting 5 32.8
2020-Jul-09 18:30 206 1 gusting 6 32.8
2020-Jul-09 18:20 227 1 gusting 3 32.2
2020-Jul-09 18:10 223 2 gusting 5 31.1
2020-Jul-09 18:00 236 1 gusting 6 31.1
2020-Jul-09 17:50 223 1 gusting 4 30.6
2020-Jul-09 17:40 216 1 gusting 7 30.6
2020-Jul-09 17:30 219 1 gusting 5 30.6
2020-Jul-09 17:20 206 2 gusting 5 30.6
2020-Jul-09 17:10 209 1 gusting 5 30.0
2020-Jul-09 17:00 206 1 gusting 3 30.0
2020-Jul-09 16:50 230 0 gusting 3 30.0
2020-Jul-09 16:40 226 1 gusting 4 29.4
2020-Jul-09 16:30 214 2 gusting 6 29.4
2020-Jul-09 16:20 208 1 gusting 6 29.4
2020-Jul-09 16:10 203 0 gusting 3 28.9
2020-Jul-09 16:00 219 1 gusting 5 28.9
2020-Jul-09 15:50 203 2 gusting 6 28.9
2020-Jul-09 15:40 183 0 gusting 1 27.8
2020-Jul-09 15:30 199 0 gusting 3 27.8
2020-Jul-09 15:20 225 0 gusting 2 27.8
2020-Jul-09 15:10 181 0 gusting 4 27.8
2020-Jul-09 15:00 188 1 gusting 2 27.2
2020-Jul-09 14:50 208 1 gusting 3 26.7
2020-Jul-09 14:40 212 1 gusting 5 26.7
2020-Jul-09 14:30 211 1 gusting 4 26.7
2020-Jul-09 14:20 209 2 gusting 6 26.1
2020-Jul-09 14:10 186 1 gusting 3 26.1
2020-Jul-09 14:00 209 2 gusting 6 26.1
2020-Jul-09 13:50 213 2 gusting 5 26.1
2020-Jul-09 13:40 229 0 gusting 4 25.6
2020-Jul-09 13:30 221 0 gusting 4 25.6
2020-Jul-09 13:20 210 1 gusting 4 25.0
2020-Jul-09 13:10 212 1 gusting 5 25.0
2020-Jul-09 13:00 202 2 gusting 5 25.0
2020-Jul-09 12:50 211 2 gusting 6 24.4
2020-Jul-09 12:40 210 1 gusting 3 24.4
2020-Jul-09 12:30 206 1 gusting 4 23.9
2020-Jul-09 12:20 198 0 gusting 3 23.9
2020-Jul-09 12:10 219 0 gusting 2 23.9
2020-Jul-09 12:00 214 0 gusting 2 23.9
2020-Jul-09 11:50 197 1 gusting 3 23.3
2020-Jul-09 11:40 204 0 gusting 3 23.3
2020-Jul-09 11:30 216 1 gusting 3 23.3
2020-Jul-09 11:20 215 1 gusting 3 23.3
2020-Jul-09 11:10 204 0 gusting 3 22.8
2020-Jul-09 11:00 212 1 gusting 2 22.8
2020-Jul-09 10:50 214 1 gusting 3 22.8
2020-Jul-09 10:40 207 0 gusting 3 22.2
2020-Jul-09 10:30 216 0 gusting 2 22.2
2020-Jul-09 10:20 215 0 gusting 2 22.2
2020-Jul-09 10:10 201 0 gusting 2 22.2
2020-Jul-09 10:00 198 0 gusting 1 22.2
2020-Jul-09 09:50 203 0 gusting 2 22.2
2020-Jul-09 09:40 205 1 gusting 2 22.2
2020-Jul-09 09:30 207 1 gusting 4 22.2
2020-Jul-09 09:20 199 0 gusting 2 21.7
2020-Jul-09 09:10 202 0 gusting 1 21.7
2020-Jul-09 09:00 205 0 gusting 1 22.2
2020-Jul-09 08:50 214 1 gusting 2 21.7
2020-Jul-09 08:40 203 0 gusting 2 22.2
2020-Jul-09 08:30 232 0 gusting 2 22.2
2020-Jul-09 08:20 193 1 gusting 2 22.2
2020-Jul-09 08:10 204 1 gusting 2 22.2
2020-Jul-09 08:00 211 0 gusting 2 22.2
2020-Jul-09 07:50 190 0 gusting 1 22.2
2020-Jul-09 07:40 197 1 gusting 2 22.2
2020-Jul-09 07:30 210 1 gusting 2 22.2
2020-Jul-09 07:20 225 0 gusting 2 22.2
2020-Jul-09 07:10 213 1 gusting 2 22.2
2020-Jul-09 07:00 219 1 gusting 3 22.2
2020-Jul-09 06:50 216 1 gusting 2 22.2
2020-Jul-09 06:40 211 1 gusting 3 22.2
2020-Jul-09 06:30 189 1 gusting 4 22.2
2020-Jul-09 06:20 173 0 gusting 1 22.2
2020-Jul-09 06:10 188 0 gusting 1 22.2
2020-Jul-09 06:00 188 0 gusting 1 22.2
2020-Jul-09 05:50 187 0 gusting 1 22.2
2020-Jul-09 05:40 195 0 gusting 2 22.2
2020-Jul-09 05:30 194 0 gusting 1 22.2
2020-Jul-09 05:20 192 0 gusting 1 22.2
2020-Jul-09 05:10 191 0 gusting 1 22.2
2020-Jul-09 05:00 190 22.2
2020-Jul-09 04:50 183 22.2
2020-Jul-09 04:40 177 0 gusting 1 22.2
2020-Jul-09 04:30 202 0 gusting 3 22.2
2020-Jul-09 04:20 226 1 gusting 3 22.2
2020-Jul-09 04:10 220 1 gusting 2 22.2
2020-Jul-09 04:00 212 1 gusting 3 22.2
2020-Jul-09 03:50 206 1 gusting 4 22.2
2020-Jul-09 03:40 208 1 gusting 3 22.2
2020-Jul-09 03:30 209 1 gusting 5 22.2
2020-Jul-09 03:20 207 1 gusting 3 22.8
2020-Jul-09 03:10 213 1 gusting 3 22.8
2020-Jul-09 03:00 221 1 gusting 3 22.8
2020-Jul-09 02:50 212 1 gusting 2 22.8
2020-Jul-09 02:40 204 1 gusting 4 22.8
2020-Jul-09 02:30 214 1 gusting 4 22.8
2020-Jul-09 02:20 209 1 gusting 5 23.3
2020-Jul-09 02:10 212 1 gusting 3 23.3
2020-Jul-09 02:00 224 1 gusting 7 23.3
2020-Jul-09 01:50 214 1 gusting 5 23.3
2020-Jul-09 01:40 216 2 gusting 6 23.3
2020-Jul-09 01:30 213 1 gusting 5 23.3
2020-Jul-09 01:20 219 2 gusting 6 23.3
2020-Jul-09 01:10 218 1 gusting 4 23.9
2020-Jul-09 01:00 219 1 gusting 3 23.9